When you browse on this site, cookies collect data to enhance your experience and personalize the content and advertising you see.
Visit our Privacy Policy to learn more. By continuing to use the site, you agree to this use of cookies and data.
  • In Deutschland
  • Länderverzeichnis
  • Für 7 Tage
  • Wassertemperatur
  • Wetterkarte
  • Widgets
  • user-avatar
    Anmelden

    Stündliche Wetter Wien

    Heute, 18 August, Sonntag

    Zeit Temperatur Niederschläge Wind Luftdruck Luftfeuchtigkeit
    00:00 +23°C° 0 mm 1 m/S 742 mmHg 53%
    01:00 +23°C° 0 mm 1 m/S 742 mmHg 56%
    02:00 +23°C° 0 mm 1 m/S 742 mmHg 57%
    03:00 +23°C° 0 mm 1 m/S 742 mmHg 58%
    04:00 +23°C° 0 mm 1 m/S 742 mmHg 59%
    05:00 +23°C° 0 mm 1 m/S 742 mmHg 60%
    06:00 +23°C° 0 mm 1 m/S 742 mmHg 61%
    07:00 +23°C° 0 mm 1 m/S 742 mmHg 61%
    08:00 +25°C° 0 mm 1 m/S 742 mmHg 56%
    09:00 +26°C° 0 mm 2 m/S 742 mmHg 51%
    10:00 +28°C° 0 mm 2 m/S 742 mmHg 46%
    11:00 +30°C° 0 mm 2 m/S 741 mmHg 42%
    12:00 +33°C° 0 mm 3 m/S 741 mmHg 37%
    13:00 +35°C° 0 mm 3 m/S 741 mmHg 32%
    14:00 +35°C° 0 mm 3 m/S 741 mmHg 31%
    15:00 +36°C° 0 mm 2 m/S 741 mmHg 30%
    16:00 +36°C° 0 mm 2 m/S 741 mmHg 29%
    17:00 +34°C° 0 mm 3 m/S 741 mmHg 34%
    18:00 +31°C° 0 mm 3 m/S 741 mmHg 39%
    19:00 +29°C° 0 mm 3 m/S 741 mmHg 45%
    20:00 +28°C° 0 mm 3 m/S 741 mmHg 49%
    21:00 +27°C° 0 mm 3 m/S 741 mmHg 53%
    22:00 +26°C° 0 mm 3 m/S 741 mmHg 57%
    23:00 +26°C° 0 mm 3 m/S 741 mmHg 58%

    Morgen, 19 August, Montag

    Zeit Temperatur Niederschläge Wind Luftdruck Luftfeuchtigkeit
    00:00 +25°C° 0 mm 3 m/S 741 mmHg 59%
    01:00 +24°C° 0 mm 3 m/S 741 mmHg 61%
    02:00 +24°C° 0 mm 3 m/S 741 mmHg 63%
    03:00 +22°C° 0 mm 3 m/S 742 mmHg 65%
    04:00 +21°C° 0 mm 3 m/S 742 mmHg 68%
    05:00 +22°C° 0 mm 3 m/S 742 mmHg 67%
    06:00 +22°C° 0 mm 4 m/S 743 mmHg 67%
    07:00 +23°C° 0 mm 5 m/S 743 mmHg 67%
    08:00 +26°C° 0 mm 4 m/S 744 mmHg 61%
    09:00 +27°C° 0 mm 3 m/S 744 mmHg 55%
    10:00 +28°C° 0 mm 3 m/S 744 mmHg 50%
    11:00 +28°C° 0 mm 4 m/S 744 mmHg 49%
    12:00 +28°C° 0 mm 5 m/S 745 mmHg 48%
    13:00 +28°C° 0 mm 7 m/S 745 mmHg 47%
    14:00 +28°C° 0 mm 6 m/S 745 mmHg 46%
    15:00 +28°C° 0 mm 4 m/S 745 mmHg 45%
    16:00 +29°C° 0 mm 3 m/S 745 mmHg 43%
    17:00 +27°C° 0 mm 3 m/S 745 mmHg 48%
    18:00 +26°C° 0 mm 2 m/S 745 mmHg 53%
    19:00 +25°C° 0 mm 2 m/S 745 mmHg 58%
    20:00 +24°C° 0 mm 2 m/S 745 mmHg 61%
    21:00 +23°C° 0 mm 2 m/S 746 mmHg 63%
    22:00 +23°C° 0 mm 1 m/S 746 mmHg 65%
    23:00 +22°C° 0 mm 1 m/S 746 mmHg 68%

    übermorgen, 20 August, Dienstag

    Zeit Temperatur Niederschläge Wind Luftdruck Luftfeuchtigkeit
    00:00 +22°C° 0 mm 1 m/S 746 mmHg 70%
    01:00 +22°C° 0 mm 1 m/S 746 mmHg 73%
    02:00 +21°C° 0 mm 1 m/S 746 mmHg 74%
    03:00 +21°C° 0 mm 1 m/S 746 mmHg 75%
    04:00 +21°C° 0 mm 1 m/S 746 mmHg 76%
    05:00 +22°C° 0.1 mm 1 m/S 746 mmHg 74%
    06:00 +22°C° 0.1 mm 1 m/S 746 mmHg 73%
    07:00 +23°C° 0.1 mm 2 m/S 746 mmHg 71%
    08:00 +24°C° 0 mm 2 m/S 746 mmHg 63%
    09:00 +26°C° 0 mm 2 m/S 746 mmHg 55%
    10:00 +28°C° 0 mm 1 m/S 746 mmHg 47%
    11:00 +29°C° 0 mm 2 m/S 746 mmHg 43%
    12:00 +31°C° 0 mm 2 m/S 745 mmHg 40%
    13:00 +33°C° 0 mm 3 m/S 745 mmHg 37%
    14:00 +33°C° 0 mm 3 m/S 745 mmHg 36%
    15:00 +34°C° 0 mm 4 m/S 744 mmHg 36%
    16:00 +34°C° 0 mm 4 m/S 744 mmHg 35%
    17:00 +33°C° 0 mm 4 m/S 743 mmHg 40%
    18:00 +31°C° 0 mm 3 m/S 743 mmHg 44%
    19:00 +29°C° 0 mm 2 m/S 743 mmHg 48%
    20:00 +28°C° 0.1 mm 2 m/S 744 mmHg 54%
    21:00 +26°C° 0.1 mm 2 m/S 744 mmHg 60%
    22:00 +25°C° 0.1 mm 2 m/S 744 mmHg 66%
    23:00 +23°C° 0.1 mm 4 m/S 745 mmHg 71%

    21 August, Mittwoch

    Zeit Temperatur Niederschläge Wind Luftdruck Luftfeuchtigkeit
    00:00 +22°C° 0.1 mm 5 m/S 745 mmHg 76%
    01:00 +21°C° 0.1 mm 7 m/S 745 mmHg 80%
    02:00 +20°C° 0 mm 7 m/S 746 mmHg 79%
    03:00 +18°C° 0 mm 7 m/S 746 mmHg 78%
    04:00 +17°C° 0 mm 7 m/S 747 mmHg 77%
    05:00 +18°C° 0 mm 7 m/S 747 mmHg 76%
    06:00 +18°C° 0 mm 7 m/S 748 mmHg 74%
    07:00 +18°C° 0 mm 7 m/S 748 mmHg 72%
    08:00 +20°C° 0 mm 6 m/S 748 mmHg 68%
    09:00 +21°C° 0 mm 6 m/S 749 mmHg 63%
    10:00 +22°C° 0 mm 6 m/S 749 mmHg 58%
    11:00 +23°C° 0 mm 6 m/S 749 mmHg 56%
    12:00 +24°C° 0 mm 6 m/S 749 mmHg 54%
    13:00 +26°C° 0 mm 6 m/S 749 mmHg 51%
    14:00 +24°C° 0.1 mm 6 m/S 749 mmHg 57%
    15:00 +23°C° 0.1 mm 5 m/S 748 mmHg 62%
    16:00 +21°C° 0.1 mm 5 m/S 748 mmHg 68%
    17:00 +21°C° 0 mm 4 m/S 748 mmHg 69%
    18:00 +21°C° 0 mm 4 m/S 748 mmHg 70%
    19:00 +20°C° 0 mm 3 m/S 748 mmHg 71%
    20:00 +20°C° 0 mm 3 m/S 749 mmHg 72%
    21:00 +19°C° 0 mm 3 m/S 749 mmHg 73%
    22:00 +19°C° 0 mm 3 m/S 749 mmHg 74%
    23:00 +18°C° 0 mm 3 m/S 749 mmHg 75%

    22 August, Donnerstag

    Zeit Temperatur Niederschläge Wind Luftdruck Luftfeuchtigkeit
    00:00 +18°C° 0 mm 3 m/S 749 mmHg 76%
    01:00 +17°C° 0 mm 3 m/S 749 mmHg 77%
    02:00 +17°C° 0 mm 3 m/S 749 mmHg 79%
    03:00 +17°C° 0 mm 3 m/S 748 mmHg 80%
    04:00 +16°C° 0 mm 3 m/S 748 mmHg 82%
    05:00 +17°C° 0 mm 3 m/S 748 mmHg 79%
    06:00 +17°C° 0 mm 4 m/S 749 mmHg 76%
    07:00 +18°C° 0 mm 4 m/S 749 mmHg 74%
    08:00 +19°C° 0 mm 4 m/S 749 mmHg 69%
    09:00 +20°C° 0 mm 4 m/S 749 mmHg 64%
    10:00 +21°C° 0 mm 4 m/S 749 mmHg 59%
    11:00 +22°C° 0 mm 4 m/S 749 mmHg 55%
    12:00 +25°C° 0 mm 4 m/S 748 mmHg 51%
    13:00 +26°C° 0 mm 5 m/S 748 mmHg 47%
    14:00 +26°C° 0 mm 5 m/S 748 mmHg 47%
    15:00 +26°C° 0 mm 4 m/S 748 mmHg 47%
    16:00 +26°C° 0 mm 4 m/S 748 mmHg 47%
    17:00 +25°C° 0 mm 4 m/S 748 mmHg 51%
    18:00 +22°C° 0 mm 4 m/S 748 mmHg 55%
    19:00 +21°C° 0 mm 3 m/S 748 mmHg 59%
    20:00 +20°C° 0 mm 3 m/S 748 mmHg 61%
    21:00 +20°C° 0 mm 3 m/S 749 mmHg 63%
    22:00 +19°C° 0 mm 3 m/S 749 mmHg 65%
    23:00 +18°C° 0 mm 3 m/S 749 mmHg 68%

    23 August, Freitag

    Zeit Temperatur Niederschläge Wind Luftdruck Luftfeuchtigkeit
    00:00 +18°C° 0 mm 3 m/S 749 mmHg 71%
    01:00 +17°C° 0 mm 3 m/S 749 mmHg 73%
    02:00 +17°C° 0 mm 3 m/S 749 mmHg 75%
    03:00 +16°C° 0 mm 3 m/S 749 mmHg 77%
    04:00 +16°C° 0 mm 3 m/S 749 mmHg 80%
    05:00 +17°C° 0 mm 4 m/S 749 mmHg 77%
    06:00 +17°C° 0 mm 4 m/S 749 mmHg 74%
    07:00 +18°C° 0 mm 4 m/S 749 mmHg 71%
    08:00 +20°C° 0 mm 4 m/S 749 mmHg 64%
    09:00 +21°C° 0 mm 4 m/S 749 mmHg 58%
    10:00 +24°C° 0 mm 3 m/S 749 mmHg 51%
    11:00 +26°C° 0 mm 3 m/S 749 mmHg 47%
    12:00 +27°C° 0 mm 3 m/S 749 mmHg 43%
    13:00 +28°C° 0 mm 3 m/S 749 mmHg 39%
    14:00 +29°C° 0 mm 3 m/S 748 mmHg 39%
    15:00 +29°C° 0 mm 3 m/S 748 mmHg 39%
    16:00 +29°C° 0 mm 3 m/S 748 mmHg 39%
    17:00 +27°C° 0 mm 2 m/S 748 mmHg 45%
    18:00 +26°C° 0 mm 2 m/S 748 mmHg 52%
    19:00 +24°C° 0 mm 2 m/S 748 mmHg 58%
    20:00 +23°C° 0 mm 2 m/S 748 mmHg 62%
    21:00 +21°C° 0 mm 2 m/S 748 mmHg 67%
    22:00 +21°C° 0 mm 2 m/S 748 mmHg 71%
    23:00 +20°C° 0 mm 2 m/S 748 mmHg 72%
    Mehr zeigen